星链-32041 (STARLINK-32041)

导读 | 星芒AI

STARLINK-32041 是 SpaceX Starlink 项目中的一颗低轨通信卫星,属于第 11 批(V1.5 版本)部署的卫星之一。该卫星于 2023 年 9 月发射,旨在为全球用户提供高速互联网服务。它运行在约 550 公里的轨道高度,采用先进的相控阵天线和激光通信技术,以提升网络性能和连接稳定性。作为 Starlink 卫星群的一部分,STARLINK-32041 有助于扩大覆盖范围,特别是在偏远和网络基础设施不足的地区。

基本信息
目录编号:
60202
目录名称:
STARLINK-32041
国际标识:
2024-124V
轨道中心:
EARTH
卫星名称:
星链-32041 (STARLINK-32041)
卫星全名:
星链-32041 (STARLINK-32041)
卫星状态:
在轨 (已飞行488 天)
发射日期:
2024-07-03 UTC
国别 :
美国 (US)
星等 :
--
轨道信息
数据来源 国际轨道数据
星历时间: 2025-11-02T07:41:54+0800
1天前
查看轨道信息
半长轴: 6853.424km
偏心率: 0.0001386
轨道倾角: 53.160°
近地点辐角 65.581°
升交点赤经 195.676°
平近点角 294.534°
近地点: 474.339km
远地点: 476.239km
周期: 94.107分钟
每日圈数: 15.30176
详细信息
卫星平台:
Starlink v2.0 mini
运营商:
太空探索技术公司
运营商所在国:
美国
制造商(研发单位):
太空探索技术公司
制造商所在国:
美国
使用方式:
暂无
卫星简介
星链(Starlink)计划是由太空探索技术公司(SpaceX)提出的一个巨型低轨卫星互联网星座项目,计划在2019年至2024年间在太空搭建由约1.2万颗卫星组成的“星链”网络,其中1584颗将部署在地球上空550千米处的近地轨道,并从2020年开始工作。该卫星仍在工作。
2D轨道图
3D轨道图
轨道高度分析图
轨道倾角分析图
轨道综合分析图
查看轨道综合分析图